| time (UTC) | temp F | wind direction | speed MPH | gust MPH | rain 1hr in | rain 24hr in | rain mn in | humidity % | barometer mb |
| 20260903075929 | 82 | 52 | 0.0 | 1.0 | 0.00 | 0.00 | 0.00 | 74 | 1011.0 |
| 20260903075429 | 82 | 69 | 0.0 | 3.0 | 0.00 | 0.00 | 0.00 | 75 | 1010.9 |
| 20260903074929 | 82 | 90 | 1.0 | 3.0 | 0.00 | 0.00 | 0.00 | 75 | 1010.9 |
| 20260903074430 | 82 | 75 | 1.0 | 6.0 | 0.00 | 0.00 | 0.00 | 75 | 1010.9 |
| 20260903073930 | 81 | 86 | 2.0 | 7.0 | 0.00 | 0.00 | 0.00 | 75 | 1011.0 |
| 20260903072930 | 82 | 97 | 3.0 | 7.0 | 0.00 | 0.00 | 0.00 | 75 | 1010.9 |
| 20260903072430 | 82 | 92 | 1.0 | 3.0 | 0.00 | 0.00 | 0.00 | 74 | 1010.9 |
| 20260903071930 | 82 | 91 | 2.0 | 3.0 | 0.00 | 0.00 | 0.00 | 74 | 1011.0 |
| 20260903071430 | 82 | 88 | 2.0 | 7.0 | 0.00 | 0.00 | 0.00 | 74 | 1010.9 |
| 20260903070929 | 82 | 88 | 3.0 | 8.0 | 0.00 | 0.00 | 0.00 | 75 | 1011.1 |
| 20260903070430 | 82 | 112 | 4.0 | 9.0 | 0.00 | 0.00 | 0.00 | 74 | 1011.0 |
| 20260903065930 | 82 | 99 | 4.0 | 9.0 | 0.00 | 0.00 | 0.00 | 74 | 1011.1 |
| 20260903065430 | 82 | 98 | 5.0 | 9.0 | 0.00 | 0.00 | 0.00 | 74 | 1011.0 |
| 20260903064930 | 82 | 102 | 5.0 | 12.0 | 0.00 | 0.00 | 0.00 | 74 | 1011.2 |
| 20260903064430 | 82 | 99 | 5.0 | 12.0 | 0.00 | 0.00 | 0.00 | 73 | 1011.1 |
| 20260903063430 | 82 | 96 | 4.0 | 10.0 | 0.00 | 0.00 | 0.00 | 73 | 1011.2 |
| 20260903062929 | 82 | 108 | 5.0 | 9.0 | 0.00 | 0.00 | 0.00 | 72 | 1011.2 |
| 20260903061930 | 83 | 113 | 5.0 | 13.0 | 0.00 | 0.00 | 0.00 | 72 | 1011.2 |
| 20260903061430 | 83 | 122 | 5.0 | 13.0 | 0.00 | 0.00 | 0.00 | 71 | 1011.4 |
| 20260903060930 | 83 | 101 | 6.0 | 13.0 | 0.00 | 0.00 | 0.00 | 71 | 1011.3 |
| 20260903060430 | 83 | 124 | 7.0 | 13.0 | 0.00 | 0.00 | 0.00 | 70 | 1011.4 |
| 20260903055930 | 83 | 91 | 4.0 | 13.0 | 0.00 | 0.00 | 0.00 | 70 | 1011.4 |
| 20260903055430 | 83 | 96 | 9.0 | 14.0 | 0.00 | 0.00 | 0.00 | 69 | 1011.6 |
| 20260903054430 | 84 | 112 | 9.0 | 17.0 | 0.00 | 0.00 | 0.00 | 67 | 1011.6 |
| 20260903053930 | 84 | 109 | 9.0 | 16.0 | 0.00 | 0.00 | 0.00 | 66 | 1011.4 |
| 20260903052931 | 85 | 100 | 8.0 | 13.0 | 0.00 | 0.00 | 0.00 | 64 | 1011.6 |
| 20260903051430 | 85 | 102 | 5.0 | 12.0 | 0.00 | 0.00 | 0.00 | 64 | 1011.6 |
| 20260903050431 | 85 | 100 | 7.0 | 12.0 | 0.00 | 0.00 | 0.00 | 64 | 1011.5 |
| 20260903045431 | 85 | 100 | 5.0 | 17.0 | 0.00 | 0.00 | 0.00 | 64 | 1011.4 |
| 20260903044931 | 86 | 113 | 10.0 | 17.0 | 0.00 | 0.00 | 0.00 | 63 | 1011.3 |
| 20260903044430 | 86 | 112 | 8.0 | 13.0 | 0.00 | 0.00 | 0.00 | 62 | 1011.4 |
| 20260903043931 | 86 | 90 | 5.0 | 9.0 | 0.00 | 0.00 | 0.00 | 63 | 1011.3 |
| 20260903043431 | 86 | 104 | 5.0 | 12.0 | 0.00 | 0.00 | 0.00 | 63 | 1011.4 |
| 20260903042931 | 86 | 109 | 5.0 | 14.0 | 0.00 | 0.00 | 0.00 | 63 | 1011.3 |
| 20260903042431 | 86 | 115 | 7.0 | 16.0 | 0.00 | 0.00 | 0.00 | 62 | 1011.3 |
| 20260903041931 | 87 | 100 | 7.0 | 16.0 | 0.00 | 0.00 | 0.00 | 62 | 1011.3 |
| 20260903041431 | 87 | 122 | 7.0 | 13.0 | 0.00 | 0.00 | 0.00 | 61 | 1011.4 |
| 20260903040931 | 87 | 119 | 7.0 | 15.0 | 0.00 | 0.00 | 0.00 | 61 | 1011.3 |
| 20260903040431 | 87 | 115 | 6.0 | 15.0 | 0.00 | 0.00 | 0.00 | 61 | 1011.4 |
| 20260903035931 | 87 | 109 | 7.0 | 18.0 | 0.00 | 0.00 | 0.00 | 60 | 1011.3 |
| 20260903035433 | 87 | 108 | 10.0 | 18.0 | 0.00 | 0.00 | 0.00 | 60 | 1011.4 |
| 20260903034931 | 88 | 126 | 8.0 | 20.0 | 0.00 | 0.00 | 0.00 | 60 | 1011.3 |
| 20260903034431 | 88 | 128 | 9.0 | 20.0 | 0.00 | 0.00 | 0.00 | 59 | 1011.4 |
| 20260903033431 | 90 | 109 | 6.0 | 12.0 | 0.00 | 0.00 | 0.00 | 57 | 1011.2 |
| 20260903032931 | 90 | 109 | 6.0 | 12.0 | 0.00 | 0.00 | 0.00 | 55 | 1011.2 |
| 20260903031932 | 91 | 101 | 5.0 | 10.0 | 0.00 | 0.00 | 0.00 | 54 | 1011.2 |
| 20260903031431 | 91 | 105 | 5.0 | 12.0 | 0.00 | 0.00 | 0.00 | 54 | 1011.2 |
| 20260903030432 | 91 | 101 | 5.0 | 13.0 | 0.00 | 0.00 | 0.00 | 53 | 1011.0 |
| 20260903025931 | 91 | 104 | 7.0 | 13.0 | 0.00 | 0.00 | 0.00 | 53 | 1010.9 |
| 20260903025433 | 92 | 103 | 6.0 | 10.0 | 0.00 | 0.00 | 0.00 | 52 | 1010.7 |
| 20260903024931 | 92 | 98 | 5.0 | 13.0 | 0.00 | 0.00 | 0.00 | 52 | 1010.7 |
| 20260903024431 | 92 | 118 | 6.0 | 13.0 | 0.00 | 0.00 | 0.00 | 52 | 1010.7 |
| 20260903023931 | 92 | 94 | 6.0 | 13.0 | 0.00 | 0.00 | 0.00 | 52 | 1010.7 |
| 20260903023431 | 92 | 106 | 5.0 | 16.0 | 0.00 | 0.00 | 0.00 | 52 | 1010.6 |
| 20260903022932 | 92 | 114 | 8.0 | 16.0 | 0.00 | 0.00 | 0.00 | 52 | 1010.7 |
| 20260903022432 | 92 | 102 | 9.0 | 15.0 | 0.00 | 0.00 | 0.00 | 51 | 1010.7 |
| 20260903021931 | 93 | 109 | 3.0 | 12.0 | 0.00 | 0.00 | 0.00 | 51 | 1010.5 |
| 20260903020932 | 93 | 107 | 4.0 | 12.0 | 0.00 | 0.00 | 0.00 | 51 | 1010.3 |
| 20260903015931 | 93 | 110 | 7.0 | 12.0 | 0.00 | 0.00 | 0.00 | 51 | 1010.2 |
| 20260903015432 | 93 | 102 | 5.0 | 13.0 | 0.00 | 0.00 | 0.00 | 51 | 1010.0 |
| 20260903014932 | 93 | 107 | 6.0 | 16.0 | 0.00 | 0.00 | 0.00 | 50 | 1010.0 |
| 20260903014431 | 93 | 104 | 7.0 | 18.0 | 0.00 | 0.00 | 0.00 | 50 | 1009.9 |
| 20260903013932 | 93 | 120 | 9.0 | 18.0 | 0.00 | 0.00 | 0.00 | 50 | 1009.9 |
| 20260903012932 | 94 | 114 | 7.0 | 15.0 | 0.00 | 0.00 | 0.00 | 49 | 1009.8 |
| 20260903012432 | 94 | 106 | 8.0 | 16.0 | 0.00 | 0.00 | 0.00 | 49 | 1009.6 |
| 20260903011432 | 95 | 106 | 7.0 | 13.0 | 0.00 | 0.00 | 0.00 | 49 | 1009.5 |
| 20260903010932 | 95 | 116 | 6.0 | 12.0 | 0.00 | 0.00 | 0.00 | 48 | 1009.6 |
| 20260903010432 | 95 | 82 | 5.0 | 14.0 | 0.00 | 0.00 | 0.00 | 48 | 1009.4 |
| 20260903005932 | 96 | 104 | 6.0 | 15.0 | 0.00 | 0.00 | 0.00 | 47 | 1009.5 |
| 20260903005432 | 97 | 120 | 6.0 | 15.0 | 0.00 | 0.00 | 0.00 | 44 | 1009.4 |
| 20260903004932 | 98 | 94 | 5.0 | 8.0 | 0.00 | 0.00 | 0.00 | 42 | 1009.5 |
| 20260903004432 | 98 | 87 | 4.0 | 12.0 | 0.00 | 0.00 | 0.00 | 42 | 1009.5 |
| 20260903003932 | 98 | 85 | 3.0 | 12.0 | 0.00 | 0.00 | 0.00 | 41 | 1009.5 |
| 20260903003432 | 99 | 78 | 6.0 | 12.0 | 0.00 | 0.00 | 0.00 | 41 | 1009.5 |
| 20260903002932 | 99 | 87 | 3.0 | 9.0 | 0.00 | 0.00 | 0.00 | 41 | 1009.5 |
| 20260903002432 | 99 | 86 | 3.0 | 10.0 | 0.00 | 0.00 | 0.00 | 40 | 1009.4 |
| 20260903001933 | 99 | 86 | 5.0 | 12.0 | 0.00 | 0.00 | 0.00 | 40 | 1009.4 |
| 20260903001432 | 100 | 90 | 7.0 | 12.0 | 0.00 | 0.00 | 0.00 | 39 | 1009.4 |
| 20260903000932 | 100 | 81 | 4.0 | 14.0 | 0.00 | 0.00 | 0.00 | 40 | 1009.2 |
| 20260903000433 | 99 | 91 | 5.0 | 14.0 | 0.00 | 0.00 | 0.00 | 40 | 1009.3 |
| 20260902235932 | 100 | 88 | 6.0 | 14.0 | 0.00 | 0.00 | 0.00 | 39 | 1009.2 |
| 20260902235433 | 100 | 84 | 6.0 | 12.0 | 0.00 | 0.00 | 0.00 | 39 | 1009.3 |
| 20260902234432 | 100 | 87 | 7.0 | 14.0 | 0.00 | 0.00 | 0.00 | 39 | 1009.3 |
| 20260902233934 | 101 | 92 | 6.0 | 14.0 | 0.00 | 0.00 | 0.00 | 38 | 1009.3 |
| 20260902232934 | 100 | 81 | 5.0 | 12.0 | 0.00 | 0.00 | 0.00 | 39 | 1009.4 |
| 20260902232432 | 100 | 104 | 6.0 | 13.0 | 0.00 | 0.00 | 0.00 | 39 | 1009.3 |
| 20260902231933 | 100 | 83 | 7.0 | 13.0 | 0.00 | 0.00 | 0.00 | 39 | 1009.3 |
| 20260902231432 | 100 | 79 | 7.0 | 13.0 | 0.00 | 0.00 | 0.00 | 39 | 1009.2 |
| 20260902230933 | 100 | 85 | 9.0 | 13.0 | 0.00 | 0.00 | 0.00 | 39 | 1009.3 |
| 20260902230432 | 101 | 76 | 7.0 | 14.0 | 0.00 | 0.00 | 0.00 | 39 | 1009.3 |
| 20260902224434 | 100 | 86 | 6.0 | 15.0 | 0.00 | 0.00 | 0.00 | 40 | 1009.3 |
| 20260902223433 | 101 | 81 | 9.0 | 15.0 | 0.00 | 0.00 | 0.00 | 39 | 1009.3 |
| 20260902222933 | 101 | 67 | 3.0 | 13.0 | 0.00 | 0.00 | 0.00 | 39 | 1009.3 |
| 20260902222433 | 101 | 84 | 3.0 | 13.0 | 0.00 | 0.00 | 0.00 | 39 | 1009.4 |
| 20260902221933 | 101 | 89 | 9.0 | 13.0 | 0.00 | 0.00 | 0.00 | 39 | 1009.4 |
| 20260902221433 | 101 | 99 | 5.0 | 13.0 | 0.00 | 0.00 | 0.00 | 40 | 1009.5 |
| 20260902220933 | 101 | 89 | 7.0 | 13.0 | 0.00 | 0.00 | 0.00 | 40 | 1009.6 |
| 20260902220433 | 100 | 92 | 6.0 | 13.0 | 0.00 | 0.00 | 0.00 | 40 | 1009.6 |
| 20260902215433 | 101 | 92 | 5.0 | 13.0 | 0.00 | 0.00 | 0.00 | 40 | 1009.6 |
| 20260902214933 | 101 | 112 | 3.0 | 16.0 | 0.00 | 0.00 | 0.00 | 39 | 1009.8 |
| 20260902214433 | 101 | 87 | 6.0 | 16.0 | 0.00 | 0.00 | 0.00 | 40 | 1009.8 |
| 20260902213934 | 101 | 87 | 9.0 | 16.0 | 0.00 | 0.00 | 0.00 | 40 | 1009.8 |
| 20260902213433 | 101 | 60 | 9.0 | 15.0 | 0.00 | 0.00 | 0.00 | 40 | 1009.8 |
| 20260902212933 | 101 | 48 | 6.0 | 12.0 | 0.00 | 0.00 | 0.00 | 39 | 1009.8 |
| 20260902212433 | 100 | 89 | 5.0 | 12.0 | 0.00 | 0.00 | 0.00 | 40 | 1009.9 |
| 20260902211433 | 101 | 111 | 6.0 | 13.0 | 0.00 | 0.00 | 0.00 | 39 | 1010.0 |
| 20260902210934 | 102 | 107 | 7.0 | 13.0 | 0.00 | 0.00 | 0.00 | 39 | 1010.0 |
| 20260902210433 | 101 | 80 | 7.0 | 13.0 | 0.00 | 0.00 | 0.00 | 39 | 1010.1 |
| 20260902205933 | 101 | 81 | 7.0 | 14.0 | 0.00 | 0.00 | 0.00 | 39 | 1010.3 |
| 20260902205433 | 101 | 108 | 5.0 | 14.0 | 0.00 | 0.00 | 0.00 | 39 | 1010.3 |
| 20260902204934 | 101 | 101 | 6.0 | 12.0 | 0.00 | 0.00 | 0.00 | 40 | 1010.3 |
| 20260902203934 | 100 | 104 | 6.0 | 13.0 | 0.00 | 0.00 | 0.00 | 41 | 1010.5 |
| 20260902203433 | 100 | 34 | 7.0 | 13.0 | 0.00 | 0.00 | 0.00 | 43 | 1010.6 |
| 20260902202934 | 99 | 84 | 1.0 | 12.0 | 0.00 | 0.00 | 0.00 | 42 | 1010.6 |
| 20260902202434 | 98 | 103 | 2.0 | 13.0 | 0.00 | 0.00 | 0.00 | 43 | 1010.8 |
| 20260902201934 | 99 | 33 | 7.0 | 13.0 | 0.00 | 0.00 | 0.00 | 44 | 1010.9 |
| 20260902201434 | 98 | 15 | 6.0 | 16.0 | 0.00 | 0.00 | 0.00 | 44 | 1010.9 |
| 20260902200933 | 98 | 7 | 9.0 | 16.0 | 0.00 | 0.00 | 0.00 | 44 | 1010.9 |
| 20260902200434 | 98 | 336 | 3.0 | 18.0 | 0.00 | 0.00 | 0.00 | 44 | 1011.1 |
| 20260902195933 | 98 | 72 | 7.0 | 18.0 | 0.00 | 0.00 | 0.00 | 44 | 1011.1 |
| 20260902195434 | 97 | 78 | 2.0 | 14.0 | 0.00 | 0.00 | 0.00 | 45 | 1011.2 |
| 20260902194934 | 97 | 39 | 9.0 | 14.0 | 0.00 | 0.00 | 0.00 | 44 | 1011.3 |
| 20260902194434 | 99 | 39 | 10.0 | 14.0 | 0.00 | 0.00 | 0.00 | 43 | 1011.3 |
| 20260902193933 | 99 | 74 | 6.0 | 13.0 | 0.00 | 0.00 | 0.00 | 44 | 1011.4 |
| 20260902193434 | 99 | 45 | 6.0 | 12.0 | 0.00 | 0.00 | 0.00 | 43 | 1011.4 |
| 20260902192934 | 99 | 73 | 5.0 | 12.0 | 0.00 | 0.00 | 0.00 | 44 | 1011.6 |
| 20260902192434 | 98 | 69 | 5.0 | 12.0 | 0.00 | 0.00 | 0.00 | 45 | 1011.7 |
| 20260902191934 | 98 | 80 | 6.0 | 12.0 | 0.00 | 0.00 | 0.00 | 45 | 1011.8 |
| 20260902191434 | 96 | 17 | 8.0 | 12.0 | 0.00 | 0.00 | 0.00 | 47 | 1011.7 |
| 20260902190434 | 95 | 320 | 8.0 | 14.0 | 0.00 | 0.00 | 0.00 | 49 | 1012.0 |
| 20260902185934 | 97 | 34 | 8.0 | 14.0 | 0.00 | 0.00 | 0.00 | 47 | 1012.0 |
| 20260902185434 | 98 | 11 | 4.0 | 12.0 | 0.00 | 0.00 | 0.00 | 46 | 1012.1 |
| 20260902184936 | 98 | 61 | 5.0 | 12.0 | 0.00 | 0.00 | 0.00 | 45 | 1012.1 |
| 20260902184434 | 98 | 92 | 4.0 | 12.0 | 0.00 | 0.00 | 0.00 | 44 | 1012.3 |
| 20260902183934 | 99 | 60 | 8.0 | 12.0 | 0.00 | 0.00 | 0.00 | 45 | 1012.3 |
| 20260902183434 | 98 | 101 | 3.0 | 9.0 | 0.00 | 0.00 | 0.00 | 44 | 1012.3 |
| 20260902182935 | 98 | 96 | 4.0 | 9.0 | 0.00 | 0.00 | 0.00 | 45 | 1012.5 |
| 20260902182434 | 97 | 67 | 3.0 | 10.0 | 0.00 | 0.00 | 0.00 | 47 | 1012.6 |
| 20260902181934 | 97 | 158 | 3.0 | 12.0 | 0.00 | 0.00 | 0.00 | 47 | 1012.7 |
| 20260902181434 | 97 | 122 | 6.0 | 12.0 | 0.00 | 0.00 | 0.00 | 47 | 1012.8 |
| 20260902180435 | 97 | 116 | 3.0 | 14.0 | 0.00 | 0.00 | 0.00 | 47 | 1013.0 |
| 20260902175934 | 97 | 84 | 3.0 | 14.0 | 0.00 | 0.00 | 0.00 | 48 | 1013.1 |
| 20260902175434 | 96 | 120 | 5.0 | 14.0 | 0.00 | 0.00 | 0.00 | 47 | 1013.1 |
| 20260902174935 | 96 | 58 | 3.0 | 14.0 | 0.00 | 0.00 | 0.00 | 47 | 1013.2 |
| 20260902174435 | 96 | 64 | 7.0 | 14.0 | 0.00 | 0.00 | 0.00 | 47 | 1013.4 |
| 20260902173934 | 96 | 82 | 6.0 | 12.0 | 0.00 | 0.00 | 0.00 | 47 | 1013.3 |
| 20260902173435 | 96 | 104 | 5.0 | 12.0 | 0.00 | 0.00 | 0.00 | 48 | 1013.5 |
| 20260902172435 | 94 | 135 | 6.0 | 12.0 | 0.00 | 0.00 | 0.00 | 49 | 1013.7 |
| 20260902171934 | 94 | 170 | 3.0 | 14.0 | 0.00 | 0.00 | 0.00 | 49 | 1013.7 |
| 20260902171434 | 95 | 146 | 7.0 | 14.0 | 0.00 | 0.00 | 0.00 | 49 | 1013.9 |
| 20260902170935 | 96 | 119 | 3.0 | 12.0 | 0.00 | 0.00 | 0.00 | 48 | 1013.8 |
| 20260902170435 | 96 | 103 | 3.0 | 10.0 | 0.00 | 0.00 | 0.00 | 49 | 1013.9 |
| 20260902165935 | 96 | 82 | 5.0 | 10.0 | 0.00 | 0.00 | 0.00 | 48 | 1014.0 |
| 20260902165434 | 95 | 31 | 1.0 | 6.0 | 0.00 | 0.00 | 0.00 | 51 | 1014.1 |
| 20260902164935 | 94 | 170 | 3.0 | 10.0 | 0.00 | 0.00 | 0.00 | 50 | 1014.1 |
| 20260902164434 | 94 | 127 | 6.0 | 10.0 | 0.00 | 0.00 | 0.00 | 49 | 1014.2 |
| 20260902163935 | 94 | 94 | 3.0 | 9.0 | 0.00 | 0.00 | 0.00 | 50 | 1014.2 |
| 20260902163435 | 93 | 130 | 2.0 | 9.0 | 0.00 | 0.00 | 0.00 | 52 | 1014.2 |
| 20260902162935 | 93 | 107 | 3.0 | 9.0 | 0.00 | 0.00 | 0.00 | 51 | 1014.2 |
| 20260902162435 | 94 | 139 | 7.0 | 10.0 | 0.00 | 0.00 | 0.00 | 51 | 1014.2 |
| 20260902161935 | 94 | 65 | 2.0 | 12.0 | 0.00 | 0.00 | 0.00 | 53 | 1014.3 |
| 20260902161435 | 93 | 85 | 4.0 | 12.0 | 0.00 | 0.00 | 0.00 | 53 | 1014.3 |
| 20260902160936 | 92 | 107 | 3.0 | 10.0 | 0.00 | 0.00 | 0.00 | 54 | 1014.4 |
| 20260902160435 | 91 | 69 | 2.0 | 7.0 | 0.00 | 0.00 | 0.00 | 57 | 1014.3 |
| 20260902155935 | 91 | 164 | 3.0 | 9.0 | 0.00 | 0.00 | 0.00 | 57 | 1014.4 |
| 20260902155435 | 91 | 117 | 5.0 | 9.0 | 0.00 | 0.00 | 0.00 | 58 | 1014.3 |
| 20260902154936 | 91 | 217 | 4.0 | 9.0 | 0.00 | 0.00 | 0.00 | 57 | 1014.4 |
| 20260902154436 | 92 | 161 | 3.0 | 8.0 | 0.00 | 0.00 | 0.00 | 55 | 1014.3 |
| 20260902153936 | 93 | 90 | 2.0 | 8.0 | 0.00 | 0.00 | 0.00 | 56 | 1014.4 |
| 20260902153435 | 92 | 89 | 2.0 | 7.0 | 0.00 | 0.00 | 0.00 | 57 | 1014.3 |
| 20260902152935 | 91 | 110 | 3.0 | 7.0 | 0.00 | 0.00 | 0.00 | 56 | 1014.4 |
| 20260902152435 | 92 | 117 | 3.0 | 7.0 | 0.00 | 0.00 | 0.00 | 57 | 1014.3 |
| 20260902151936 | 91 | 73 | 1.0 | 9.0 | 0.00 | 0.00 | 0.00 | 59 | 1014.3 |
| 20260902151435 | 90 | 73 | 5.0 | 9.0 | 0.00 | 0.00 | 0.00 | 60 | 1014.2 |
| 20260902150935 | 89 | 167 | 3.0 | 7.0 | 0.00 | 0.00 | 0.00 | 60 | 1014.2 |
| 20260902144936 | 89 | 130 | 2.0 | 8.0 | 0.00 | 0.00 | 0.00 | 61 | 1014.2 |
| 20260902144435 | 88 | 98 | 3.0 | 8.0 | 0.00 | 0.00 | 0.00 | 62 | 1014.3 |
| 20260902143936 | 88 | 96 | 3.0 | 8.0 | 0.00 | 0.00 | 0.00 | 62 | 1014.2 |
| 20260902143436 | 87 | 102 | 3.0 | 8.0 | 0.00 | 0.00 | 0.00 | 64 | 1014.4 |
| 20260902142436 | 86 | 157 | 4.0 | 7.0 | 0.00 | 0.00 | 0.00 | 64 | 1014.4 |
| 20260902141936 | 86 | 177 | 3.0 | 7.0 | 0.00 | 0.00 | 0.00 | 65 | 1014.2 |
| 20260902140937 | 87 | 126 | 3.0 | 8.0 | 0.00 | 0.00 | 0.00 | 65 | 1014.3 |
| 20260902140436 | 87 | 121 | 3.0 | 8.0 | 0.00 | 0.00 | 0.00 | 64 | 1014.2 |
| 20260902135936 | 86 | 123 | 3.0 | 7.0 | 0.00 | 0.00 | 0.00 | 65 | 1014.3 |
| 20260902135435 | 86 | 112 | 4.0 | 7.0 | 0.00 | 0.00 | 0.00 | 66 | 1014.2 |
| 20260902134937 | 86 | 122 | 4.0 | 7.0 | 0.00 | 0.00 | 0.00 | 66 | 1014.3 |
| 20260902134436 | 86 | 112 | 2.0 | 6.0 | 0.00 | 0.00 | 0.00 | 67 | 1014.2 |
| 20260902133937 | 85 | 92 | 3.0 | 6.0 | 0.00 | 0.00 | 0.00 | 67 | 1014.3 |
| 20260902132936 | 84 | 93 | 3.0 | 6.0 | 0.00 | 0.00 | 0.00 | 70 | 1014.2 |
| 20260902132435 | 83 | 107 | 2.0 | 6.0 | 0.00 | 0.00 | 0.00 | 70 | 1014.1 |
| 20260902131936 | 83 | 103 | 2.0 | 6.0 | 0.00 | 0.00 | 0.00 | 71 | 1014.1 |
| 20260902130936 | 83 | 136 | 2.0 | 3.0 | 0.00 | 0.00 | 0.00 | 72 | 1014.0 |
| 20260902130436 | 82 | 105 | 1.0 | 3.0 | 0.00 | 0.00 | 0.00 | 73 | 1014.0 |
| 20260902125937 | 81 | 106 | 0.0 | 1.0 | 0.00 | 0.00 | 0.00 | 76 | 1013.9 |
| 20260902125439 | 80 | 231 | 0.0 | 1.0 | 0.00 | 0.00 | 0.00 | 76 | 1014.1 |
| 20260902124937 | 80 | 76 | 0.0 | 1.0 | 0.00 | 0.00 | 0.00 | 77 | 1013.9 |
| 20260902124436 | 79 | 84 | 0.0 | 1.0 | 0.00 | 0.00 | 0.00 | 78 | 1013.9 |
| 20260902123936 | 79 | 93 | 0.0 | 1.0 | 0.00 | 0.00 | 0.00 | 78 | 1013.8 |
| 20260902123436 | 78 | 304 | 0.0 | 1.0 | 0.00 | 0.00 | 0.00 | 78 | 1013.7 |
| 20260902122936 | 78 | 21 | 0.0 | 2.0 | 0.00 | 0.00 | 0.00 | 78 | 1013.7 |
| 20260902122436 | 78 | 21 | 0.0 | 3.0 | 0.00 | 0.00 | 0.00 | 77 | 1013.6 |
| 20260902121936 | 78 | 21 | 2.0 | 3.0 | 0.00 | 0.00 | 0.00 | 77 | 1013.7 |
| 20260902121437 | 78 | 60 | 0.0 | 1.0 | 0.00 | 0.00 | 0.00 | 77 | 1013.5 |
| 20260902120436 | 79 | 64 | 0.0 | 1.0 | 0.00 | 0.00 | 0.00 | 76 | 1013.5 |
| 20260902115937 | 79 | 67 | 0.0 | 1.0 | 0.00 | 0.00 | 0.00 | 76 | 1013.5 |
| 20260902115436 | 80 | 67 | 0.0 | 1.0 | 0.00 | 0.00 | 0.00 | 75 | 1013.5 |
| 20260902114937 | 80 | 67 | 0.0 | 3.0 | 0.00 | 0.00 | 0.00 | 75 | 1013.5 |
| 20260902113937 | 80 | 106 | 2.0 | 3.0 | 0.00 | 0.00 | 0.00 | 76 | 1013.4 |
| 20260902113437 | 79 | 88 | 2.0 | 3.0 | 0.00 | 0.00 | 0.00 | 76 | 1013.6 |
| 20260902110437 | 80 | 112 | 3.0 | 3.0 | 0.00 | 0.00 | 0.00 | 75 | 1013.5 |
| 20260902105936 | 80 | 111 | 2.0 | 3.0 | 0.00 | 0.00 | 0.00 | 76 | 1013.5 |
| 20260902105437 | 79 | 148 | 0.0 | 2.0 | 0.00 | 0.00 | 0.00 | 76 | 1013.4 |
| 20260902104937 | 79 | 148 | 0.0 | 1.0 | 0.00 | 0.00 | 0.00 | 76 | 1013.4 |
| 20260902104436 | 80 | 148 | 0.0 | 1.0 | 0.00 | 0.00 | 0.00 | 76 | 1013.3 |
| 20260902103937 | 80 | 148 | 0.0 | 1.0 | 0.00 | 0.00 | 0.00 | 76 | 1013.4 |
| 20260902103437 | 80 | 148 | 0.0 | 1.0 | 0.00 | 0.00 | 0.00 | 76 | 1013.3 |
| 20260902102938 | 80 | 148 | 0.0 | 1.0 | 0.00 | 0.00 | 0.00 | 76 | 1013.4 |
| 20260902102437 | 80 | 148 | 0.0 | 1.0 | 0.00 | 0.00 | 0.00 | 76 | 1013.3 |
| 20260902101937 | 80 | 148 | 0.0 | 1.0 | 0.00 | 0.00 | 0.00 | 76 | 1013.4 |
| 20260902101437 | 80 | 148 | 0.0 | 1.0 | 0.00 | 0.00 | 0.00 | 76 | 1013.4 |
| 20260902100937 | 79 | 148 | 0.0 | 1.0 | 0.00 | 0.00 | 0.00 | 78 | 1013.3 |
| 20260902095937 | 79 | 148 | 0.0 | 1.0 | 0.00 | 0.00 | 0.00 | 77 | 1013.4 |
| 20260902095437 | 80 | 148 | 0.0 | 1.0 | 0.00 | 0.00 | 0.00 | 76 | 1013.4 |
| 20260902094937 | 80 | 148 | 0.0 | 1.0 | 0.00 | 0.00 | 0.00 | 76 | 1013.3 |
| 20260902094437 | 81 | 148 | 0.0 | 1.0 | 0.00 | 0.00 | 0.00 | 75 | 1013.3 |
| 20260902093437 | 81 | 148 | 0.0 | 1.0 | 0.00 | 0.00 | 0.00 | 75 | 1013.4 |
| 20260902092937 | 81 | 148 | 0.0 | 1.0 | 0.00 | 0.00 | 0.00 | 75 | 1013.3 |
| 20260902092437 | 81 | 148 | 0.0 | 1.0 | 0.00 | 0.00 | 0.00 | 75 | 1013.4 |
| 20260902091938 | 81 | 148 | 0.0 | 0.0 | 0.00 | 0.00 | 0.00 | 75 | 1013.4 |
| 20260902091437 | 81 | 148 | 0.0 | 0.0 | 0.00 | 0.00 | 0.00 | 75 | 1013.3 |
| 20260902090937 | 81 | 148 | 0.0 | 0.0 | 0.00 | 0.00 | 0.00 | 75 | 1013.4 |
| 20260902090438 | 81 | 148 | 0.0 | 2.0 | 0.00 | 0.00 | 0.00 | 74 | 1013.4 |
| 20260902085938 | 81 | 148 | 0.0 | 2.0 | 0.00 | 0.00 | 0.00 | 74 | 1013.4 |
| 20260902085437 | 81 | 87 | 0.0 | 2.0 | 0.00 | 0.00 | 0.00 | 74 | 1013.3 |
| 20260902084938 | 82 | 159 | 1.0 | 2.0 | 0.00 | 0.00 | 0.00 | 74 | 1013.3 |
| 20260902084437 | 82 | 159 | 1.0 | 3.0 | 0.00 | 0.00 | 0.00 | 73 | 1013.3 |
| 20260902083937 | 82 | 159 | 1.0 | 5.0 | 0.00 | 0.00 | 0.00 | 72 | 1013.4 |
| 20260902083438 | 82 | 156 | 3.0 | 5.0 | 0.00 | 0.00 | 0.00 | 72 | 1013.4 |
| 20260902082938 | 82 | 130 | 3.0 | 6.0 | 0.00 | 0.00 | 0.00 | 72 | 1013.5 |
| 20260902081438 | 83 | 165 | 2.0 | 5.0 | 0.00 | 0.00 | 0.00 | 71 | 1013.4 |
| 20260902080938 | 83 | 163 | 3.0 | 6.0 | 0.00 | 0.00 | 0.00 | 70 | 1013.4 |
| 20260902080438 | 83 | 144 | 3.0 | 7.0 | 0.00 | 0.00 | 0.00 | 70 | 1013.4 |